Weather History for KMQB - December, 2012

Change the Weather History Date:

Saturday, December 22, 2012

  Actual Average (KBRL) Record (KBRL)
Temperature  
Mean Temperature 20 °F 27 °F  
Max Temperature 32 °F 35 °F 62 °F (1933)
Min Temperature 8 °F 19 °F -18 °F (1989)
Degree Days  
Heating Degree Days 45 38  
Month to date heating degree days 766  
Since 1 July heating degree days 1839  
Cooling Degree Days 0 0  
Month to date cooling degree days 0  
Year to date cooling degree days 1207  
Moisture  
Dew Point 15 °F    
Average Humidity 85    
Maximum Humidity 100    
Minimum Humidity 63    
Precipitation  
Precipitation 0.00 in 0.07 in - ()
Month to date precipitation 1.58  
Year to date precipitation 37.97  
Sea Level Pressure  
Sea Level Pressure 30.13 in    
Wind  
Wind Speed 5 mph (SSE)    
Max Wind Speed 13 mph    
Max Gust Speed -    
Visibility 10 miles    
Events      
T = Trace of Precipitation, MM = Missing Value Source: NWS Daily Summary

Daily Weather History Graph

Daily Weather History Graph

Search for Another Location

Airport or City:

Trip Planner

Search our weather history database for the weather conditions in past years. The results will help you decide how hot, cold, wet, or windy it might be!

Date:

Astronomy

Dec. 22, 2012 Rise Set
Actual Time 7:23 AM CST 4:39 PM CST
Civil Twilight 6:52 AM CST 5:10 PM CST
Nautical Twilight 6:18 AM CST 5:45 PM CST
Astronomical Twilight 5:44 AM CST 6:18 PM CST
Moon 12:58 PM CST (12/22) 2:07 AM CST (12/22)
Length of Visible Light 10h 18m
Length of Day
9h 16m
Waxing Gibbous, 74% of the Moon is Illuminated
Dec 22
Waxing Gibbous
Dec 28
Full
Jan 4
Last Quarter
Jan 11
New
Jan 18
First Quarter

Hourly Weather History & Observations

Time (CST) Temp. Windchill Dew Point Humidity Pressure Visibility Wind Dir Wind Speed Gust Speed Precip Events Conditions
12:15 AM 12.6 °F 6.5 °F 9.1 °F 86% 30.28 in 10.0 mi West 3.5 mph - N/A   Clear
12:35 AM 11.7 °F 2.3 °F 8.8 °F 88% 30.28 in 10.0 mi West 5.8 mph - N/A   Clear
12:55 AM 12.6 °F 1.1 °F 9.5 °F 88% 30.28 in 10.0 mi West 8.1 mph - N/A   Clear
1:15 AM 12.0 °F 4.1 °F 9.0 °F 88% 30.28 in 10.0 mi West 4.6 mph - N/A   Clear
1:35 AM 11.3 °F 0.7 °F 8.6 °F 89% 30.28 in 10.0 mi West 6.9 mph - N/A   Clear
1:55 AM 10.9 °F 0.2 °F 8.4 °F 90% 30.29 in 10.0 mi West 6.9 mph - N/A   Clear
2:15 AM 11.8 °F 2.5 °F 9.3 °F 90% 30.29 in 10.0 mi West 5.8 mph - N/A   Clear
2:35 AM 10.8 °F 0.0 °F 8.2 °F 90% 30.30 in 10.0 mi West 6.9 mph - N/A   Clear
2:55 AM 12.6 °F 2.2 °F 9.5 °F 88% 30.29 in 10.0 mi West 6.9 mph - N/A   Clear
3:15 AM 12.4 °F 3.1 °F 9.7 °F 89% 30.28 in 10.0 mi West 5.8 mph - N/A   Clear
3:35 AM 12.2 °F - 9.3 °F 88% 30.28 in 10.0 mi Calm Calm - N/A   Clear
3:55 AM 10.4 °F - 8.6 °F 92% 30.27 in 10.0 mi Calm Calm - N/A   Clear
4:15 AM 10.4 °F - 8.2 °F 91% 30.26 in 10.0 mi Calm Calm - N/A   Clear
4:35 AM 9.9 °F 3.4 °F 7.7 °F 91% 30.26 in 10.0 mi WSW 3.5 mph - N/A   Clear
4:55 AM 9.9 °F - 7.9 °F 92% 30.25 in 10.0 mi Calm Calm - N/A   Clear
5:15 AM 10.0 °F - 8.2 °F 92% 30.25 in 10.0 mi Calm Calm - N/A   Clear
5:35 AM 10.4 °F - 6.8 °F 85% 30.25 in 10.0 mi Calm Calm - N/A   Clear
5:55 AM 9.9 °F - 8.2 °F 93% 30.25 in 10.0 mi Calm Calm - N/A   Clear
6:15 AM 9.3 °F - 7.7 °F 93% 30.25 in 10.0 mi Calm Calm - N/A   Clear
6:35 AM 9.0 °F - 7.3 °F 93% 30.25 in 10.0 mi Calm Calm - N/A   Clear
6:55 AM 8.8 °F 0.4 °F 7.3 °F 94% 30.26 in 10.0 mi SW 4.6 mph - N/A   Clear
7:15 AM 9.5 °F 3.0 °F 7.7 °F 92% 30.25 in 10.0 mi South 3.5 mph - N/A   Clear
7:35 AM 9.5 °F - 7.9 °F 93% 30.25 in 10.0 mi Calm Calm - N/A   Clear
7:55 AM 9.3 °F 2.8 °F 7.7 °F 93% 30.24 in 10.0 mi SSE 3.5 mph - N/A   Clear
8:15 AM 10.6 °F - 8.8 °F 92% 30.24 in 10.0 mi Calm Calm - N/A   Clear
8:35 AM 11.3 °F 3.3 °F 9.7 °F 93% 30.24 in 10.0 mi SSE 4.6 mph - N/A   Clear
8:55 AM 13.8 °F 6.2 °F 11.7 °F 91% 30.24 in 10.0 mi SSE 4.6 mph - N/A   Clear
9:15 AM 16.2 °F 10.6 °F 12.6 °F 86% 30.24 in 10.0 mi SSE 3.5 mph - N/A   Clear
9:35 AM 17.2 °F 11.9 °F 13.1 °F 84% 30.23 in 10.0 mi SSE 3.5 mph - N/A   Clear
9:55 AM 18.3 °F 9.1 °F 13.5 °F 81% 30.23 in 10.0 mi SSE 6.9 mph - N/A   Clear
10:15 AM 19.2 °F 9.3 °F 14.4 °F 81% 30.22 in 10.0 mi SSE 8.1 mph - N/A   Clear
10:35 AM 20.7 °F 11.0 °F 15.3 °F 80% 30.21 in 10.0 mi SSE 8.1 mph - N/A   Clear
10:55 AM 21.7 °F 12.3 °F 16.0 °F 78% 30.20 in 10.0 mi SSE 8.1 mph - N/A   Clear
11:15 AM 23.0 °F 14.7 °F 17.1 °F 78% 30.18 in 10.0 mi SE 6.9 mph - N/A   Clear
11:35 AM 24.4 °F 15.6 °F 18.0 °F 76% 30.17 in 10.0 mi SE 8.1 mph - N/A   Clear
11:55 AM 25.9 °F 16.6 °F 18.5 °F 74% 30.16 in 10.0 mi SE 9.2 mph - N/A   Clear
12:15 PM 27.1 °F 18.2 °F 19.0 °F 72% 30.13 in 10.0 mi SE 9.2 mph - N/A   Clear
12:35 PM 28.4 °F 20.4 °F 20.1 °F 71% 30.12 in 10.0 mi SE 8.1 mph - N/A   Clear
12:55 PM 29.3 °F 19.6 °F 19.8 °F 68% 30.10 in 10.0 mi SE 11.5 mph - N/A   Clear
1:15 PM 30.2 °F 21.3 °F 20.1 °F 66% 30.09 in 10.0 mi SE 10.4 mph - N/A   Clear
1:35 PM 30.9 °F 21.2 °F 20.7 °F 66% 30.08 in 10.0 mi SE 12.7 mph - N/A   Clear
1:55 PM 31.5 °F 22.9 °F 20.8 °F 65% 30.06 in 10.0 mi SE 10.4 mph - N/A   Clear
2:15 PM 31.6 °F 22.1 °F 20.8 °F 64% 30.05 in 10.0 mi SE 12.7 mph - N/A   Clear
2:35 PM 32.0 °F 22.5 °F 20.7 °F 63% 30.04 in 10.0 mi SE 12.7 mph - N/A   Clear
2:55 PM 32.0 °F 22.5 °F 22.3 °F 67% 30.03 in 10.0 mi SSE 12.7 mph - N/A   Clear
3:15 PM 32.0 °F 22.5 °F 23.0 °F 69% 30.03 in 10.0 mi SE 12.7 mph - N/A   Clear
3:35 PM 32.0 °F 23.6 °F 23.2 °F 70% 30.03 in 10.0 mi SE 10.4 mph - N/A   Clear
3:55 PM 31.6 °F 23.7 °F 23.7 °F 73% 30.02 in 10.0 mi SE 9.2 mph - N/A   Clear
4:15 PM 30.9 °F 22.2 °F 23.5 °F 74% 30.00 in 10.0 mi SSE 10.4 mph - N/A   Clear
4:35 PM 30.6 °F 23.1 °F 23.0 °F 74% 30.00 in 10.0 mi SE 8.1 mph - N/A   Clear
4:55 PM 29.3 °F 21.5 °F 23.0 °F 77% 30.00 in 10.0 mi SE 8.1 mph - N/A   Clear
5:15 PM 28.6 °F 21.5 °F 22.5 °F 78% 30.00 in 10.0 mi SSE 6.9 mph - N/A   Clear
5:35 PM 28.4 °F 20.4 °F 23.0 °F 80% 30.00 in 10.0 mi SSE 8.1 mph - N/A   Clear
5:55 PM 27.0 °F 19.5 °F 22.1 °F 82% 29.99 in 10.0 mi SE 6.9 mph - N/A   Clear
6:15 PM 25.3 °F 17.6 °F 21.0 °F 84% 29.99 in 10.0 mi SE 6.9 mph - N/A   Clear
6:35 PM 25.5 °F 16.9 °F 21.6 °F 85% 29.98 in 10.0 mi SSE 8.1 mph - N/A   Clear
6:55 PM 22.5 °F 17.8 °F 19.6 °F 89% 29.99 in 10.0 mi East 3.5 mph - N/A   Clear
7:15 PM 21.7 °F - 19.4 °F 91% 30.00 in 10.0 mi Calm Calm - N/A   Clear
7:35 PM 21.7 °F 17.0 °F 19.4 °F 91% 30.00 in 10.0 mi NE 3.5 mph - N/A   Clear
7:55 PM 21.2 °F - 17.6 °F 86% 29.99 in 10.0 mi Calm Calm - N/A   Clear
8:15 PM 20.1 °F 15.2 °F 18.3 °F 93% 29.98 in 10.0 mi South 3.5 mph - N/A   Clear
8:35 PM 20.1 °F - 18.7 °F 94% 29.98 in 10.0 mi Calm Calm - N/A   Clear
8:55 PM 19.4 °F - 17.6 °F 93% 29.97 in 10.0 mi Calm Calm - N/A   Clear
9:15 PM 18.5 °F - 17.1 °F 94% 29.97 in 10.0 mi Calm Calm - N/A   Clear
9:35 PM 20.1 °F 12.3 °F 18.9 °F 95% 29.96 in 10.0 mi SSE 5.8 mph - N/A   Clear
9:55 PM 21.9 °F - 21.6 °F 99% 29.95 in 10.0 mi Calm Calm - N/A   Clear
10:15 PM 23.5 °F 17.6 °F 22.1 °F 94% 29.95 in 10.0 mi South 4.6 mph - N/A   Clear
10:35 PM 21.9 °F 17.2 °F 20.3 °F 93% 29.95 in 10.0 mi South 3.5 mph - N/A   Clear
10:55 PM 18.3 °F - 16.3 °F 92% 29.96 in 10.0 mi Calm Calm - N/A   Clear
11:15 PM 18.1 °F - 17.2 °F 96% 29.95 in 10.0 mi Calm Calm - N/A   Clear
11:35 PM 17.6 °F - 17.6 °F 100% 29.95 in 10.0 mi Calm Calm - N/A   Clear
11:55 PM 19.8 °F 14.7 °F 18.9 °F 96% 29.95 in 10.0 mi NW 3.5 mph - N/A   Clear